CZ-6A DEB, 61453

Orbit data source: Space-Track

CZ-6A DEB, 61453 is space debris in LEO originally from a launch on Tue, 06 Aug 2024 UTC launched from the Taiyaun Space Center, China (TSC). Debris objects in space refer to the collection of defunct objects orbiting the Earth. Examples of debris include non-operational satellites, rocket bodies, and fragments generated from explosions, collisions, or faulty payload assembly.

Loading next visibility...
Identifier
61453, 2024-140ZK
Orbit
LEO
Country
Flag of CNCN / PRC
Related business
Manufacturer
SAST
Mission
Spacecraft
Bus & Motor
Unknown
Mass
Unknown
Launch date (UTC)
2024-08-06 (2 years ago)
Launch vehicle
Unknown
Launch site
Taiyaun Space Center, China (TSC)
Object type
Payload
Rocket body
Debris
Shape & HBR
Unknown shape, 0.1 m
Radar Cross Section
Small (<0.1 m²)

Expand to show TLE details & history
Last TLE update: 17 hours ago

TLE from 17 hours ago
0 CZ-6A DEB
1 61453U 24140ZK  26118.40052733  .00006245  00000-0  99757-3 0  9999
2 61453  89.0352 278.4699 0104865  47.7769 313.2287 14.68083572 88812
Epoch: 2026-04-28T09:36Z
TLE epoch observation values (Epoch: 2026-04-28T09:36:45.561Z)
Latitude
Longitude
-82.09632°
Altitude
620.117 km
Speed
7.576 km/s
True Right ascension
18h 33m 52s
True Declination
0° 00' 00"
Sunlit
Object was in full shadow at epoch
Visualization orbit readout
Latitude
Unknown
Longitude
Unknown
Altitude
Unknown
Speed
Unknown
Apparent Right ascension
Unknown
Apparent Declination
Unknown
Sunlit
N/A
Visualization observer readout
Local Sidereal Time
10:07:24
Azimuth
Unknown
Elevation
Unknown
Doppler factor
Unknown
Orbital elements
Apogee altitude
737.923 km
Perigee altitude
590.226 km
Semi-major axis
7,042.212 km
Eccentricity
0.01049
Inclination
89.0352°
RAAN
278.4699°
Arg. of periapsis
47.7769°
True anomaly
312.34524°
Mean anomaly
313.2287°
Eccentric anomaly
312.78776°
Mean motion
3.67265 °/min
Orbital period
98.02 mins
BSTAR
0.00099757
Loading maneuver chart data...
Computing Atmospheric mass density...
Loading historical data...
Loading historical data...
Loading historical data...
Loading historical data...
Loading historical data...
Loading historical data...
Loading historical data...

Documentation

Showing up to 5 results
|